Change the Weather History Date:

Sunday, January 12, 2014

  Actual Average (KHVN) Record (KHVN)
Temperature  
Mean Temperature 40 °F -  
Max Temperature 52 °F 34 °F 58 °F (1975)
Min Temperature 28 °F 22 °F -1 °F (1981)
Degree Days  
Heating Degree Days 25    
Moisture  
Dew Point 30 °F    
Average Humidity 62    
Maximum Humidity 89    
Minimum Humidity 47    
Precipitation  
Precipitation 0.00 in - - ()
Sea Level Pressure  
Sea Level Pressure 29.72 in    
Wind  
Wind Speed 8 mph (WNW)    
Max Wind Speed 17 mph    
Max Gust Speed 25 mph    
Visibility 10 miles    
Events      
Averages and records for this station are not official NWS values.
T = Trace of Precipitation, MM = Missing Value Source: NWS Daily Summary

Daily Weather History Graph

Daily Weather History Graph

Search for Another Location

Airport or City:

Trip Planner

Search our weather history database for the weather conditions in past years. The results will help you decide how hot, cold, wet, or windy it might be!

Date:

Astronomy

Jan. 12, 2014 Rise Set
Actual Time 7:16 AM EST 4:43 PM EST
Civil Twilight 6:45 AM EST 5:13 PM EST
Nautical Twilight 6:11 AM EST 5:48 PM EST
Astronomical Twilight 5:38 AM EST 6:21 PM EST
Moon 2:09 PM EST (1/12) 4:12 AM EST (1/12)
Length of Visible Light 10h 27m
Length of Day
9h 26m
Waxing Gibbous, 89% of the Moon is Illuminated
Jan 12
Waxing Gibbous
Jan 15
Full
Jan 24
Last Quarter
Jan 30
New
Feb 6
First Quarter

Hourly Weather History & Observations

Time (EST) Temp. Windchill Dew Point Humidity Pressure Visibility Wind Dir Wind Speed Gust Speed Precip Events Conditions
12:53 AM 51.1 °F - 48.0 °F 89% 29.37 in 10.0 mi South 6.9 mph - 0.00 in   Overcast
1:53 AM 52.0 °F - 48.0 °F 86% 29.39 in 10.0 mi Variable 5.8 mph - 0.00 in   Overcast
2:53 AM 51.1 °F - 44.1 °F 77% 29.41 in 10.0 mi NW 11.5 mph - N/A   Overcast
3:53 AM 50.0 °F - 37.9 °F 63% 29.42 in 10.0 mi West 4.6 mph - N/A   Overcast
4:53 AM 46.9 °F - 35.1 °F 63% 29.46 in 10.0 mi NW 11.5 mph 24.2 mph N/A   Overcast
5:53 AM 44.1 °F 39.0 °F 32.0 °F 63% 29.48 in 10.0 mi WNW 9.2 mph 19.6 mph N/A   Clear
6:53 AM 42.1 °F 38.4 °F 28.9 °F 60% 29.53 in 10.0 mi NNW 5.8 mph - N/A   Scattered Clouds
7:53 AM 42.1 °F 37.7 °F 28.9 °F 60% 29.57 in 10.0 mi NW 6.9 mph - N/A   Scattered Clouds
8:53 AM 43.0 °F 36.8 °F 28.9 °F 58% 29.63 in 10.0 mi NNW 11.5 mph 21.9 mph N/A   Overcast
9:53 AM 44.1 °F 39.0 °F 28.9 °F 55% 29.68 in 10.0 mi NW 9.2 mph - N/A   Overcast
10:53 AM 44.1 °F 38.6 °F 28.9 °F 55% 29.70 in 10.0 mi NW 10.4 mph - N/A   Overcast
11:53 AM 45.0 °F 37.6 °F 28.0 °F 52% 29.70 in 10.0 mi WNW 17.3 mph 25.3 mph N/A   Overcast
12:53 PM 44.1 °F 37.4 °F 27.0 °F 51% 29.73 in 10.0 mi WNW 13.8 mph 20.7 mph N/A   Overcast
1:53 PM 45.0 °F 37.9 °F 28.0 °F 52% 29.74 in 10.0 mi NW 16.1 mph 20.7 mph N/A   Overcast
2:53 PM 44.1 °F 39.0 °F 27.0 °F 51% 29.78 in 10.0 mi NW 9.2 mph - N/A   Mostly Cloudy
3:53 PM 44.1 °F 39.5 °F 25.0 °F 47% 29.83 in 10.0 mi NW 8.1 mph - N/A   Scattered Clouds
4:53 PM 43.0 °F 37.7 °F 24.1 °F 47% 29.88 in 10.0 mi West 9.2 mph - N/A   Overcast
5:53 PM 39.9 °F 37.8 °F 23.0 °F 51% 29.92 in 10.0 mi Variable 3.5 mph - N/A   Partly Cloudy
6:53 PM 39.0 °F 32.8 °F 23.0 °F 53% 29.96 in 10.0 mi NW 9.2 mph - N/A   Partly Cloudy
7:53 PM 37.9 °F 34.4 °F 23.0 °F 55% 29.97 in 10.0 mi West 4.6 mph - N/A   Clear
8:53 PM 37.9 °F 33.5 °F 24.1 °F 57% 29.99 in 10.0 mi West 5.8 mph - N/A   Clear
9:53 PM 33.1 °F 30.0 °F 24.1 °F 70% 30.01 in 10.0 mi WNW 3.5 mph - N/A   Clear
10:53 PM 28.0 °F 24.2 °F 23.0 °F 81% 30.04 in 10.0 mi South 3.5 mph - N/A   Clear
11:53 PM 28.0 °F - 24.1 °F 85% 30.04 in 10.0 mi Calm Calm - N/A   Clear